7 * 24
多渠道服务支持
MOLNIYA 3-24(闪电3-24)属于苏联/俄罗斯闪电三号(Molniya‑3)系列通信卫星,由独联体(CIS)关联机构继承发射任务,1985年5月29日在普列谢茨克发射场成功送入太空。该卫星基于KAUR‑2平台研制,发射质量约1740千克,设计寿命3年,运行在高偏心率闪电轨道,配备多路C频段转发器,主要承担前苏联/俄罗斯区域通信、电视转播业务,助力高纬度地区通信覆盖。
俄罗斯(独联体)
(CIS)
| 数据来源 | 国际轨道数据 |
| 星历时间: | 2026-09-05T15:01:46+0800 6天前 查看轨道信息 |
| 半长轴: | 22591.387km |
| 偏心率: | 0.6955331 |
| 轨道倾角: | 62.359° |
| 近地点辐角 | 258.830° |
| 升交点赤经 | 135.975° |
| 平近点角 | 22.161° |
| 近地点: | 500.192km |
| 远地点: | 31926.308km |
| 周期: | 563.215分钟 |
| 每日圈数: | 2.556751 |